This is the latest recevied weather packets stored in our database for station/object KB9MLJ. If no packets are shown the sender has not sent any weather packets the latest 10 day(s).
| Time | Temp. | Humidity | Pressure | Rain* | Wind** | Luminosity | Snow |
|---|---|---|---|---|---|---|---|
| 1777562522 | 12.22° C | 52% | 1017.2 hPa | 0 mm | - | 753 W/m² | - |
| 1777562220 | 12.22° C | 57% | 1017.2 hPa | 0 mm | - | 755 W/m² | - |
| 1777561918 | 12.22° C | 58% | 1017.2 hPa | 0 mm | - | 757 W/m² | - |
| 1777561614 | 11.67° C | 60% | 1017.2 hPa | 0 mm | - | 727 W/m² | - |
| 1777561310 | 11.67° C | 60% | 1016.8 hPa | 0 mm | - | 717 W/m² | - |
| 1777561010 | 11.67° C | 63% | 1017.5 hPa | 0 mm | - | 687 W/m² | - |
| 1777560705 | 11.67° C | 62% | 1017.5 hPa | 0 mm | - | 433 W/m² | - |
| 1777560403 | 11.67° C | 64% | 1017.2 hPa | 0 mm | - | 648 W/m² | - |
| 1777560101 | 11.11° C | 65% | 1017.2 hPa | 0 mm | - | 637 W/m² | - |
| 1777559797 | 11.11° C | 68% | 1017.5 hPa | 0 mm | - | 598 W/m² | - |
| 1777559494 | 11.11° C | 69% | 1017.2 hPa | 0 mm | - | 591 W/m² | - |
| 1777559191 | 10.56° C | 69% | 1017.2 hPa | 0 mm | - | 582 W/m² | - |
| 1777558891 | 10.56° C | 69% | 1017.2 hPa | 0 mm | - | 508 W/m² | - |
| 1777558587 | 10.56° C | 71% | 1017.2 hPa | 0 mm | - | 557 W/m² | - |
| 1777558282 | 10.56° C | 71% | 1017.5 hPa | 0 mm | - | 535 W/m² | - |
| 1777557979 | 10° C | 72% | 1017.5 hPa | 0 mm | - | 222 W/m² | - |
| 1777557676 | 10° C | 74% | 1017.5 hPa | 0 mm | - | 459 W/m² | - |
| 1777557372 | 9.44° C | 74% | 1017.5 hPa | 0 mm | - | 474 W/m² | - |
| 1777557069 | 9.44° C | 73% | 1017.5 hPa | 0 mm | - | 448 W/m² | - |
| 1777556764 | 9.44° C | 75% | 1017.5 hPa | 0 mm | - | 421 W/m² | - |
| 1777556461 | 9.44° C | 75% | 1017.2 hPa | 0 mm | - | 366 W/m² | - |
| 1777556161 | 9.44° C | 74% | 1017.5 hPa | 0 mm | - | 350 W/m² | - |
| 1777555857 | 8.89° C | 76% | 1017.5 hPa | 0 mm | - | 363 W/m² | - |
| 1777555552 | 8.89° C | 77% | 1017.5 hPa | 0 mm | - | 338 W/m² | - |
| 1777555249 | 8.89° C | 77% | 1017.2 hPa | 0 mm | - | 331 W/m² | - |
* Rain latest hour (hover to see other rain measurements)
** Current wind speed in m/s (hover to see current wind gust speed)